Year,Month,Day,Hour,Minute,Value (Times are PST for temperature in C)
2009,04,19,00,00,9.80
2009,04,19,00,01,9.80
2009,04,19,00,02,9.70
2009,04,19,00,03,9.70
2009,04,19,00,04,9.70
2009,04,19,00,05,9.70
2009,04,19,00,06,9.70
2009,04,19,00,07,9.70
2009,04,19,00,08,9.70
2009,04,19,00,09,9.70
2009,04,19,00,10,9.70
2009,04,19,00,11,9.70
2009,04,19,00,12,9.70
2009,04,19,00,13,9.70
2009,04,19,00,14,9.70
2009,04,19,00,15,9.60
2009,04,19,00,16,9.60
2009,04,19,00,17,9.60
2009,04,19,00,18,9.60
2009,04,19,00,19,9.60
2009,04,19,00,20,9.60
2009,04,19,00,21,9.60
2009,04,19,00,22,9.60
2009,04,19,00,23,9.60
2009,04,19,00,24,9.50
2009,04,19,00,25,9.40
2009,04,19,00,26,9.40
2009,04,19,00,27,9.30
2009,04,19,00,28,9.30
2009,04,19,00,29,9.30
2009,04,19,00,30,9.20
2009,04,19,00,31,9.20
2009,04,19,00,32,9.20
2009,04,19,00,33,9.20
2009,04,19,00,34,9.20
2009,04,19,00,35,9.20
2009,04,19,00,36,9.20
2009,04,19,00,37,9.10
2009,04,19,00,38,9.10
2009,04,19,00,39,9.10
2009,04,19,00,40,9.10
2009,04,19,00,41,9.10
2009,04,19,00,42,9.10
2009,04,19,00,43,9.10
2009,04,19,00,44,9.10
2009,04,19,00,45,9.00
2009,04,19,00,46,9.00
2009,04,19,00,47,9.00
2009,04,19,00,48,9.00
2009,04,19,00,49,9.00
2009,04,19,00,50,9.00
2009,04,19,00,51,9.00
2009,04,19,00,52,9.00
2009,04,19,00,53,9.00
2009,04,19,00,54,9.00
2009,04,19,00,55,9.00
2009,04,19,00,56,9.00
2009,04,19,00,57,9.00
2009,04,19,00,58,9.00
2009,04,19,00,59,9.00
2009,04,19,01,00,9.00
2009,04,19,01,01,9.00
2009,04,19,01,02,9.00
2009,04,19,01,03,8.90
2009,04,19,01,04,8.90
2009,04,19,01,05,8.90
2009,04,19,01,06,8.90
2009,04,19,01,07,8.90
2009,04,19,01,08,8.90
2009,04,19,01,09,8.90
2009,04,19,01,10,8.90
2009,04,19,01,11,8.90
2009,04,19,01,12,8.90
2009,04,19,01,13,8.90
2009,04,19,01,14,8.90
2009,04,19,01,15,8.90
2009,04,19,01,16,8.90
2009,04,19,01,17,8.90
2009,04,19,01,18,8.90
2009,04,19,01,19,8.90
2009,04,19,01,20,8.90
2009,04,19,01,21,8.90
2009,04,19,01,22,8.90
2009,04,19,01,23,8.90
2009,04,19,01,24,8.90
2009,04,19,01,25,8.90
2009,04,19,01,26,8.90
2009,04,19,01,27,8.90
2009,04,19,01,28,8.90
2009,04,19,01,29,8.90
2009,04,19,01,30,8.90
2009,04,19,01,31,9.00
2009,04,19,01,32,9.00
2009,04,19,01,33,9.00
2009,04,19,01,34,9.00
2009,04,19,01,35,9.10
2009,04,19,01,36,9.10
2009,04,19,01,37,9.10
2009,04,19,01,38,9.10
2009,04,19,01,39,9.10
2009,04,19,01,40,9.10
2009,04,19,01,41,9.10
2009,04,19,01,42,9.10
2009,04,19,01,43,9.10
2009,04,19,01,44,9.10
2009,04,19,01,45,9.20
2009,04,19,01,46,9.10
2009,04,19,01,47,9.10
2009,04,19,01,48,9.10
2009,04,19,01,49,9.10
2009,04,19,01,50,9.10
2009,04,19,01,51,9.10
2009,04,19,01,52,9.10
2009,04,19,01,53,9.10
2009,04,19,01,54,9.10
2009,04,19,01,55,9.10
2009,04,19,01,56,9.00
2009,04,19,01,57,9.00
2009,04,19,01,58,9.00
2009,04,19,01,59,9.00
2009,04,19,02,00,8.90
2009,04,19,02,01,8.90
2009,04,19,02,02,8.90
2009,04,19,02,03,8.90
2009,04,19,02,04,8.90
2009,04,19,02,05,8.90
2009,04,19,02,06,8.80
2009,04,19,02,07,8.80
2009,04,19,02,08,8.80
2009,04,19,02,09,8.80
2009,04,19,02,10,8.80
2009,04,19,02,11,8.80
2009,04,19,02,12,8.80
2009,04,19,02,13,8.80
2009,04,19,02,14,8.80
2009,04,19,02,15,8.80
2009,04,19,02,16,8.80
2009,04,19,02,17,8.80
2009,04,19,02,18,8.80
2009,04,19,02,19,8.80
2009,04,19,02,20,8.80
2009,04,19,02,21,8.80
2009,04,19,02,22,8.80
2009,04,19,02,23,8.80
2009,04,19,02,24,8.80
2009,04,19,02,25,8.80
2009,04,19,02,26,8.80
2009,04,19,02,27,8.80
2009,04,19,02,28,8.80
2009,04,19,02,29,8.80
2009,04,19,02,30,8.80
2009,04,19,02,31,8.70
2009,04,19,02,32,8.70
2009,04,19,02,33,8.70
2009,04,19,02,34,8.70
2009,04,19,02,35,8.70
2009,04,19,02,36,8.80
2009,04,19,02,37,8.80
2009,04,19,02,38,8.80
2009,04,19,02,39,8.80
2009,04,19,02,40,8.80
2009,04,19,02,41,8.80
2009,04,19,02,42,8.80
2009,04,19,02,43,8.80
2009,04,19,02,44,8.80
2009,04,19,02,45,8.80
2009,04,19,02,46,8.80
2009,04,19,02,47,8.70
2009,04,19,02,48,8.70
2009,04,19,02,49,8.70
2009,04,19,02,50,8.70
2009,04,19,02,51,8.70
2009,04,19,02,52,8.70
2009,04,19,02,53,8.70
2009,04,19,02,54,8.70
2009,04,19,02,55,8.70
2009,04,19,02,56,8.70
2009,04,19,02,57,8.70
2009,04,19,02,58,8.70
2009,04,19,02,59,8.70
2009,04,19,03,00,8.70
2009,04,19,03,01,8.70
2009,04,19,03,02,8.70
2009,04,19,03,03,8.70
2009,04,19,03,04,8.70
2009,04,19,03,05,8.70
2009,04,19,03,06,8.70
2009,04,19,03,07,8.70
2009,04,19,03,08,8.70
2009,04,19,03,09,8.70
2009,04,19,03,10,8.70
2009,04,19,03,11,8.70
2009,04,19,03,12,8.70
2009,04,19,03,13,8.70
2009,04,19,03,14,8.60
2009,04,19,03,15,8.60
2009,04,19,03,16,8.60
2009,04,19,03,17,8.60
2009,04,19,03,18,8.60
2009,04,19,03,19,8.60
2009,04,19,03,20,8.60
2009,04,19,03,21,8.60
2009,04,19,03,22,8.60
2009,04,19,03,23,8.60
2009,04,19,03,24,8.60
2009,04,19,03,25,8.60
2009,04,19,03,26,8.60
2009,04,19,03,27,8.60
2009,04,19,03,28,8.60
2009,04,19,03,29,8.60
2009,04,19,03,30,8.60
2009,04,19,03,31,8.60
2009,04,19,03,32,8.60
2009,04,19,03,33,8.60
2009,04,19,03,34,8.60
2009,04,19,03,35,8.60
2009,04,19,03,36,8.60
2009,04,19,03,37,8.60
2009,04,19,03,38,8.60
2009,04,19,03,39,8.60
2009,04,19,03,40,8.60
2009,04,19,03,41,8.50
2009,04,19,03,42,8.50
2009,04,19,03,43,8.50
2009,04,19,03,44,8.50
2009,04,19,03,45,8.50
2009,04,19,03,46,8.50
2009,04,19,03,47,8.50
2009,04,19,03,48,8.50
2009,04,19,03,49,8.50
2009,04,19,03,50,8.50
2009,04,19,03,51,8.50
2009,04,19,03,52,8.50
2009,04,19,03,53,8.50
2009,04,19,03,54,8.40
2009,04,19,03,55,8.40
2009,04,19,03,56,8.40
2009,04,19,03,57,8.40
2009,04,19,03,58,8.40
2009,04,19,03,59,8.40
2009,04,19,04,00,8.40
2009,04,19,04,01,8.40
2009,04,19,04,02,8.40
2009,04,19,04,03,8.30
2009,04,19,04,04,8.30
2009,04,19,04,05,8.30
2009,04,19,04,06,8.30
2009,04,19,04,07,8.30
2009,04,19,04,08,8.30
2009,04,19,04,09,8.30
2009,04,19,04,10,8.30
2009,04,19,04,11,8.30
2009,04,19,04,12,8.30
2009,04,19,04,13,8.30
2009,04,19,04,14,8.30
2009,04,19,04,15,8.30
2009,04,19,04,16,8.30
2009,04,19,04,17,8.30
2009,04,19,04,18,8.30
2009,04,19,04,19,8.30
2009,04,19,04,20,8.30
2009,04,19,04,21,8.30
2009,04,19,04,22,8.30
2009,04,19,04,23,8.30
2009,04,19,04,24,8.30
2009,04,19,04,25,8.30
2009,04,19,04,26,8.30
2009,04,19,04,27,8.30
2009,04,19,04,28,8.30
2009,04,19,04,29,8.30
2009,04,19,04,30,8.30
2009,04,19,04,31,8.30
2009,04,19,04,32,8.30
2009,04,19,04,33,8.30
2009,04,19,04,34,8.30
2009,04,19,04,35,8.30
2009,04,19,04,36,8.30
2009,04,19,04,37,8.30
2009,04,19,04,38,8.30
2009,04,19,04,39,8.20
2009,04,19,04,40,8.20
2009,04,19,04,41,8.20
2009,04,19,04,42,8.20
2009,04,19,04,43,8.10
2009,04,19,04,44,8.10
2009,04,19,04,45,8.10
2009,04,19,04,46,8.10
2009,04,19,04,47,8.10
2009,04,19,04,48,8.10
2009,04,19,04,49,8.10
2009,04,19,04,50,8.10
2009,04,19,04,51,8.10
2009,04,19,04,52,8.10
2009,04,19,04,53,8.10
2009,04,19,04,54,8.10
2009,04,19,04,55,8.10
2009,04,19,04,56,8.10
2009,04,19,04,57,8.10
2009,04,19,04,58,8.10
2009,04,19,04,59,8.10
2009,04,19,05,00,8.10
2009,04,19,05,01,8.10
2009,04,19,05,02,8.10
2009,04,19,05,03,8.10
2009,04,19,05,04,8.10
2009,04,19,05,05,8.10
2009,04,19,05,06,8.10
2009,04,19,05,07,8.10
2009,04,19,05,08,8.10
2009,04,19,05,09,8.10
2009,04,19,05,10,8.10
2009,04,19,05,11,8.10
2009,04,19,05,12,8.10
2009,04,19,05,13,8.10
2009,04,19,05,14,8.10
2009,04,19,05,15,8.10
2009,04,19,05,16,8.10
2009,04,19,05,17,8.10
2009,04,19,05,18,8.10
2009,04,19,05,19,8.10
2009,04,19,05,20,8.10
2009,04,19,05,21,8.10
2009,04,19,05,22,8.10
2009,04,19,05,23,8.10
2009,04,19,05,24,8.20
2009,04,19,05,25,8.20
2009,04,19,05,26,8.20
2009,04,19,05,27,8.20
2009,04,19,05,28,8.20
2009,04,19,05,29,8.20
2009,04,19,05,30,8.20
2009,04,19,05,31,8.20
2009,04,19,05,32,8.20
2009,04,19,05,33,8.20
2009,04,19,05,34,8.20
2009,04,19,05,35,8.20
2009,04,19,05,36,8.20
2009,04,19,05,37,8.20
2009,04,19,05,38,8.20
2009,04,19,05,39,8.20
2009,04,19,05,40,8.20
2009,04,19,05,41,8.20
2009,04,19,05,42,8.20
2009,04,19,05,43,8.20
2009,04,19,05,44,8.20
2009,04,19,05,45,8.20
2009,04,19,05,46,8.20
2009,04,19,05,47,8.20
2009,04,19,05,48,8.20
2009,04,19,05,49,8.20
2009,04,19,05,50,8.20
2009,04,19,05,51,8.20
2009,04,19,05,52,8.20
2009,04,19,05,53,8.20
2009,04,19,05,54,8.20
2009,04,19,05,55,8.20
2009,04,19,05,56,8.20
2009,04,19,05,57,8.20
2009,04,19,05,58,8.20
2009,04,19,05,59,8.20
2009,04,19,06,00,8.20
2009,04,19,06,01,8.20
2009,04,19,06,02,8.20
2009,04,19,06,03,8.20
2009,04,19,06,04,8.20
2009,04,19,06,05,8.20
2009,04,19,06,06,8.20
2009,04,19,06,07,8.20
2009,04,19,06,08,8.20
2009,04,19,06,09,8.20
2009,04,19,06,10,8.20
2009,04,19,06,11,8.20
2009,04,19,06,12,8.20
2009,04,19,06,13,8.20
2009,04,19,06,14,8.20
2009,04,19,06,15,8.20
2009,04,19,06,16,8.20
2009,04,19,06,17,8.20
2009,04,19,06,18,8.20
2009,04,19,06,19,8.20
2009,04,19,06,20,8.20
2009,04,19,06,21,8.20
2009,04,19,06,22,8.20
2009,04,19,06,23,8.20
2009,04,19,06,24,8.20
2009,04,19,06,25,8.20
2009,04,19,06,26,8.20
2009,04,19,06,27,8.20
2009,04,19,06,28,8.20
2009,04,19,06,29,8.20
2009,04,19,06,30,8.20
2009,04,19,06,31,8.20
2009,04,19,06,32,8.10
2009,04,19,06,33,8.10
2009,04,19,06,34,8.00
2009,04,19,06,35,8.00
2009,04,19,06,36,7.90
2009,04,19,06,37,7.90
2009,04,19,06,38,7.90
2009,04,19,06,39,7.90
2009,04,19,06,40,7.90
2009,04,19,06,41,7.90
2009,04,19,06,42,7.90
2009,04,19,06,43,7.90
2009,04,19,06,44,7.90
2009,04,19,06,45,7.90
2009,04,19,06,46,7.90
2009,04,19,06,47,7.90
2009,04,19,06,48,7.90
2009,04,19,06,49,7.90
2009,04,19,06,50,7.90
2009,04,19,06,51,7.90
2009,04,19,06,52,7.90
2009,04,19,06,53,7.90
2009,04,19,06,54,8.00
2009,04,19,06,55,8.00
2009,04,19,06,56,8.00
2009,04,19,06,57,8.00
2009,04,19,06,58,8.00
2009,04,19,06,59,8.10
2009,04,19,07,00,8.10
2009,04,19,07,01,8.10
2009,04,19,07,02,8.10
2009,04,19,07,03,8.10
2009,04,19,07,04,8.10
2009,04,19,07,05,8.10
2009,04,19,07,06,8.10
2009,04,19,07,07,8.10
2009,04,19,07,08,8.10
2009,04,19,07,09,8.10
2009,04,19,07,10,8.10
2009,04,19,07,11,8.10
2009,04,19,07,12,8.20
2009,04,19,07,13,8.20
2009,04,19,07,14,8.20
2009,04,19,07,15,8.20
2009,04,19,07,16,8.20
2009,04,19,07,17,8.20
2009,04,19,07,18,8.20
2009,04,19,07,19,8.20
2009,04,19,07,20,8.20
2009,04,19,07,21,8.20
2009,04,19,07,22,8.20
2009,04,19,07,23,8.30
2009,04,19,07,24,8.30
2009,04,19,07,25,8.30
2009,04,19,07,26,8.30
2009,04,19,07,27,8.30
2009,04,19,07,28,8.30
2009,04,19,07,29,8.30
2009,04,19,07,30,8.40
2009,04,19,07,31,8.40
2009,04,19,07,32,8.40
2009,04,19,07,33,8.40
2009,04,19,07,34,8.50
2009,04,19,07,35,8.50
2009,04,19,07,36,8.50
2009,04,19,07,37,8.50
2009,04,19,07,38,8.60
2009,04,19,07,39,8.60
2009,04,19,07,40,8.60
2009,04,19,07,41,8.60
2009,04,19,07,42,8.70
2009,04,19,07,43,8.70
2009,04,19,07,44,8.70
2009,04,19,07,45,8.70
2009,04,19,07,46,8.70
2009,04,19,07,47,8.80
2009,04,19,07,48,8.80
2009,04,19,07,49,8.80
2009,04,19,07,50,8.80
2009,04,19,07,51,8.80
2009,04,19,07,52,8.80
2009,04,19,07,53,8.90
2009,04,19,07,54,8.90
2009,04,19,07,55,8.90
2009,04,19,07,56,8.90
2009,04,19,07,57,8.90
2009,04,19,07,58,8.90
2009,04,19,07,59,9.00
2009,04,19,08,00,9.00
2009,04,19,08,01,9.00
2009,04,19,08,02,9.00
2009,04,19,08,03,9.00
2009,04,19,08,04,9.10
2009,04,19,08,05,9.10
2009,04,19,08,06,9.10
2009,04,19,08,07,9.10
2009,04,19,08,08,9.10
2009,04,19,08,09,9.20
2009,04,19,08,10,9.20
2009,04,19,08,11,9.20
2009,04,19,08,12,9.20
2009,04,19,08,13,9.20
2009,04,19,08,14,9.20
2009,04,19,08,15,9.30
2009,04,19,08,16,9.30
2009,04,19,08,17,9.30
2009,04,19,08,18,9.30
2009,04,19,08,19,9.30
2009,04,19,08,20,9.40
2009,04,19,08,21,9.40
2009,04,19,08,22,9.40
2009,04,19,08,23,9.50
2009,04,19,08,24,9.50
2009,04,19,08,25,9.50
2009,04,19,08,26,9.60
2009,04,19,08,27,9.60
2009,04,19,08,28,9.60
2009,04,19,08,29,9.60
2009,04,19,08,30,9.70
2009,04,19,08,31,9.70
2009,04,19,08,32,9.70
2009,04,19,08,33,9.80
2009,04,19,08,34,9.80
2009,04,19,08,35,9.80
2009,04,19,08,36,9.80
2009,04,19,08,37,9.80
2009,04,19,08,38,9.80
2009,04,19,08,39,9.90
2009,04,19,08,40,9.90
2009,04,19,08,41,10.00
2009,04,19,08,42,10.00
2009,04,19,08,43,10.00
2009,04,19,08,44,10.00
2009,04,19,08,45,10.10
2009,04,19,08,46,10.10
2009,04,19,08,47,10.10
2009,04,19,08,48,10.20
2009,04,19,08,49,10.20
2009,04,19,08,50,10.20
2009,04,19,08,51,10.30
2009,04,19,08,52,10.30
2009,04,19,08,53,10.30
2009,04,19,08,54,10.30
2009,04,19,08,55,10.40
2009,04,19,08,56,10.40
2009,04,19,08,57,10.40
2009,04,19,08,58,10.50
2009,04,19,08,59,10.50
2009,04,19,09,00,10.60
2009,04,19,09,01,10.70
2009,04,19,09,02,10.80
2009,04,19,09,03,10.80
2009,04,19,09,04,10.90
2009,04,19,09,05,10.90
2009,04,19,09,06,11.00
2009,04,19,09,07,11.00
2009,04,19,09,08,11.10
2009,04,19,09,09,11.10
2009,04,19,09,10,11.20
2009,04,19,09,11,11.30
2009,04,19,09,12,11.30
2009,04,19,09,13,11.40
2009,04,19,09,14,11.40
2009,04,19,09,15,11.50
2009,04,19,09,16,11.60
2009,04,19,09,17,11.60
2009,04,19,09,18,11.70
2009,04,19,09,19,11.70
2009,04,19,09,20,11.80
2009,04,19,09,21,11.80
2009,04,19,09,22,11.80
2009,04,19,09,23,11.80
2009,04,19,09,24,11.90
2009,04,19,09,25,11.90
2009,04,19,09,26,11.90
2009,04,19,09,27,11.90
2009,04,19,09,28,11.90
2009,04,19,09,29,11.90
2009,04,19,09,30,12.00
2009,04,19,09,31,12.00
2009,04,19,09,32,12.00
2009,04,19,09,33,12.00
2009,04,19,09,34,12.00
2009,04,19,09,35,12.10
2009,04,19,09,36,12.10
2009,04,19,09,37,12.10
2009,04,19,09,38,12.10
2009,04,19,09,39,12.20
2009,04,19,09,40,12.20
2009,04,19,09,41,12.20
2009,04,19,09,42,12.20
2009,04,19,09,43,12.20
2009,04,19,09,44,12.20
2009,04,19,09,45,12.20
2009,04,19,09,46,12.30
2009,04,19,09,47,12.40
2009,04,19,09,48,12.40
2009,04,19,09,49,12.40
2009,04,19,09,50,12.50
2009,04,19,09,51,12.50
2009,04,19,09,52,12.50
2009,04,19,09,53,12.50
2009,04,19,09,54,12.40
2009,04,19,09,55,12.30
2009,04,19,09,56,12.30
2009,04,19,09,57,12.20
2009,04,19,09,58,12.20
2009,04,19,09,59,12.10
2009,04,19,10,00,12.10
2009,04,19,10,01,12.10
2009,04,19,10,02,12.10
2009,04,19,10,03,12.20
2009,04,19,10,04,12.20
2009,04,19,10,05,12.20
2009,04,19,10,06,12.20
2009,04,19,10,07,12.20
2009,04,19,10,08,12.10
2009,04,19,10,09,12.20
2009,04,19,10,10,12.20
2009,04,19,10,11,12.20
2009,04,19,10,12,12.10
2009,04,19,10,13,12.10
2009,04,19,10,14,12.10
2009,04,19,10,15,12.10
2009,04,19,10,16,12.10
2009,04,19,10,17,12.20
2009,04,19,10,18,12.20
2009,04,19,10,19,12.20
2009,04,19,10,20,12.30
2009,04,19,10,21,12.30
2009,04,19,10,22,12.30
2009,04,19,10,23,12.30
2009,04,19,10,24,12.30
2009,04,19,10,25,12.40
2009,04,19,10,26,12.60
2009,04,19,10,27,12.70
2009,04,19,10,28,12.70
2009,04,19,10,29,12.70
2009,04,19,10,30,12.80
2009,04,19,10,31,12.80
2009,04,19,10,32,12.90
2009,04,19,10,33,12.90
2009,04,19,10,34,13.00
2009,04,19,10,35,13.00
2009,04,19,10,36,13.10
2009,04,19,10,37,13.10
2009,04,19,10,38,13.20
2009,04,19,10,39,13.20
2009,04,19,10,40,13.30
2009,04,19,10,41,13.30
2009,04,19,10,42,13.30
2009,04,19,10,43,13.40
2009,04,19,10,44,13.40
2009,04,19,10,45,13.50
2009,04,19,10,46,13.60
2009,04,19,10,47,13.60
2009,04,19,10,48,13.70
2009,04,19,10,49,13.80
2009,04,19,10,50,13.80
2009,04,19,10,51,13.80
2009,04,19,10,52,13.80
2009,04,19,10,53,13.70
2009,04,19,10,54,13.70
2009,04,19,10,55,13.70
2009,04,19,10,56,13.70
2009,04,19,10,57,13.70
2009,04,19,10,58,13.80
2009,04,19,10,59,13.90
2009,04,19,11,00,14.10
2009,04,19,11,01,14.20
2009,04,19,11,02,14.30
2009,04,19,11,03,14.30
2009,04,19,11,04,14.30
2009,04,19,11,05,14.20
2009,04,19,11,06,14.30
2009,04,19,11,07,14.40
2009,04,19,11,08,14.50
2009,04,19,11,09,14.60
2009,04,19,11,10,14.50
2009,04,19,11,11,14.40
2009,04,19,11,12,14.30
2009,04,19,11,13,14.30
2009,04,19,11,14,14.40
2009,04,19,11,15,14.50
2009,04,19,11,16,14.60
2009,04,19,11,17,14.60
2009,04,19,11,18,14.70
2009,04,19,11,19,14.80
2009,04,19,11,20,14.90
2009,04,19,11,21,15.00
2009,04,19,11,22,15.00
2009,04,19,11,23,15.00
2009,04,19,11,24,15.00
2009,04,19,11,25,15.00
2009,04,19,11,26,15.10
2009,04,19,11,27,15.30
2009,04,19,11,28,15.40
2009,04,19,11,29,15.50
2009,04,19,11,30,15.60
2009,04,19,11,31,15.50
2009,04,19,11,32,15.40
2009,04,19,11,33,15.30
2009,04,19,11,34,15.20
2009,04,19,11,35,15.10
2009,04,19,11,36,15.20
2009,04,19,11,37,15.10
2009,04,19,11,38,15.10
2009,04,19,11,39,15.10
2009,04,19,11,40,15.30
2009,04,19,11,41,15.30
2009,04,19,11,42,15.30
2009,04,19,11,43,15.30
2009,04,19,11,44,15.40
2009,04,19,11,45,15.40
2009,04,19,11,46,15.30
2009,04,19,11,47,15.20
2009,04,19,11,48,15.20
2009,04,19,11,49,15.20
2009,04,19,11,50,15.20
2009,04,19,11,51,15.20
2009,04,19,11,52,15.30
2009,04,19,11,53,15.20
2009,04,19,11,54,15.00
2009,04,19,11,55,15.00
2009,04,19,11,56,15.00
2009,04,19,11,57,15.00
2009,04,19,11,58,15.10
2009,04,19,11,59,15.30
2009,04,19,12,00,15.30
2009,04,19,12,01,15.50
2009,04,19,12,02,15.50
2009,04,19,12,03,15.50
2009,04,19,12,04,15.40
2009,04,19,12,05,15.40
2009,04,19,12,06,15.50
2009,04,19,12,07,15.70
2009,04,19,12,08,15.90
2009,04,19,12,09,15.80
2009,04,19,12,10,15.80
2009,04,19,12,11,15.80
2009,04,19,12,12,15.90
2009,04,19,12,13,15.90
2009,04,19,12,14,15.90
2009,04,19,12,15,16.00
2009,04,19,12,16,16.00
2009,04,19,12,17,16.10
2009,04,19,12,18,16.00
2009,04,19,12,19,16.00
2009,04,19,12,20,15.80
2009,04,19,12,21,15.90
2009,04,19,12,22,15.80
2009,04,19,12,23,15.90
2009,04,19,12,24,15.90
2009,04,19,12,25,15.90
2009,04,19,12,26,15.90
2009,04,19,12,27,15.90
2009,04,19,12,28,16.00
2009,04,19,12,29,16.10
2009,04,19,12,30,16.30
2009,04,19,12,31,16.30
2009,04,19,12,32,16.20
2009,04,19,12,33,16.20
2009,04,19,12,34,16.30
2009,04,19,12,35,16.30
2009,04,19,12,36,16.20
2009,04,19,12,37,16.20
2009,04,19,12,38,16.20
2009,04,19,12,39,16.10
2009,04,19,12,40,15.90
2009,04,19,12,41,15.80
2009,04,19,12,42,15.80
2009,04,19,12,43,15.90
2009,04,19,12,44,15.80
2009,04,19,12,45,15.80
2009,04,19,12,46,15.80
2009,04,19,12,47,15.70
2009,04,19,12,48,15.60
2009,04,19,12,49,15.50
2009,04,19,12,50,15.40
2009,04,19,12,51,15.60
2009,04,19,12,52,15.70
2009,04,19,12,53,15.80
2009,04,19,12,54,15.90
2009,04,19,12,55,16.00
2009,04,19,12,56,15.90
2009,04,19,12,57,15.70
2009,04,19,12,58,15.50
2009,04,19,12,59,15.30
2009,04,19,13,00,15.20
2009,04,19,13,01,15.20
2009,04,19,13,02,15.00
2009,04,19,13,03,15.00
2009,04,19,13,04,15.00
2009,04,19,13,05,14.80
2009,04,19,13,06,14.80
2009,04,19,13,07,14.90
2009,04,19,13,08,14.80
2009,04,19,13,09,14.80
2009,04,19,13,10,14.80
2009,04,19,13,11,14.90
2009,04,19,13,12,15.00
2009,04,19,13,13,14.90
2009,04,19,13,14,14.80
2009,04,19,13,15,14.90
2009,04,19,13,16,14.80
2009,04,19,13,17,14.70
2009,04,19,13,18,14.70
2009,04,19,13,19,14.80
2009,04,19,13,20,15.00
2009,04,19,13,21,15.10
2009,04,19,13,22,15.30
2009,04,19,13,23,15.30
2009,04,19,13,24,15.20
2009,04,19,13,25,15.20
2009,04,19,13,26,15.10
2009,04,19,13,27,15.00
2009,04,19,13,28,15.00
2009,04,19,13,29,14.80
2009,04,19,13,30,14.60
2009,04,19,13,31,14.60
2009,04,19,13,32,14.60
2009,04,19,13,33,14.50
2009,04,19,13,34,14.50
2009,04,19,13,35,14.60
2009,04,19,13,36,14.60
2009,04,19,13,37,14.70
2009,04,19,13,38,15.00
2009,04,19,13,39,15.00
2009,04,19,13,40,15.00
2009,04,19,13,41,15.00
2009,04,19,13,42,15.00
2009,04,19,13,43,15.00
2009,04,19,13,44,14.90
2009,04,19,13,45,14.70
2009,04,19,13,46,14.70
2009,04,19,13,47,14.60
2009,04,19,13,48,14.50
2009,04,19,13,49,14.30
2009,04,19,13,50,14.30
2009,04,19,13,51,14.30
2009,04,19,13,52,14.50
2009,04,19,13,53,14.60
2009,04,19,13,54,14.70
2009,04,19,13,55,14.70
2009,04,19,13,56,14.80
2009,04,19,13,57,14.90
2009,04,19,13,58,14.80
2009,04,19,13,59,14.90
2009,04,19,14,00,15.00
2009,04,19,14,01,15.00
2009,04,19,14,02,15.00
2009,04,19,14,03,15.10
2009,04,19,14,04,15.20
2009,04,19,14,05,15.30
2009,04,19,14,06,15.30
2009,04,19,14,07,15.20
2009,04,19,14,08,15.10
2009,04,19,14,09,15.10
2009,04,19,14,10,15.00
2009,04,19,14,11,15.00
2009,04,19,14,12,15.00
2009,04,19,14,13,15.00
2009,04,19,14,14,15.00
2009,04,19,14,15,15.00
2009,04,19,14,16,14.90
2009,04,19,14,17,14.80
2009,04,19,14,18,14.70
2009,04,19,14,19,14.80
2009,04,19,14,20,14.90
2009,04,19,14,21,15.00
2009,04,19,14,22,15.00
2009,04,19,14,23,15.20
2009,04,19,14,24,15.30
2009,04,19,14,25,15.40
2009,04,19,14,26,15.50
2009,04,19,14,27,15.50
2009,04,19,14,28,15.50
2009,04,19,14,29,15.30
2009,04,19,14,30,15.20
2009,04,19,14,31,15.10
2009,04,19,14,32,15.10
2009,04,19,14,33,15.00
2009,04,19,14,34,15.00
2009,04,19,14,35,15.00
2009,04,19,14,36,15.00
2009,04,19,14,37,15.00
2009,04,19,14,38,15.00
2009,04,19,14,39,15.00
2009,04,19,14,40,15.00
2009,04,19,14,41,15.00
2009,04,19,14,42,15.00
2009,04,19,14,43,15.10
2009,04,19,14,44,15.20
2009,04,19,14,45,15.10
2009,04,19,14,46,15.00
2009,04,19,14,47,15.00
2009,04,19,14,48,15.00
2009,04,19,14,49,15.00
2009,04,19,14,50,15.00
2009,04,19,14,51,15.00
2009,04,19,14,52,15.00
2009,04,19,14,53,15.20
2009,04,19,14,54,15.40
2009,04,19,14,55,15.50
2009,04,19,14,56,15.70
2009,04,19,14,57,15.70
2009,04,19,14,58,15.70
2009,04,19,14,59,15.60
2009,04,19,15,00,15.60
2009,04,19,15,01,15.60
2009,04,19,15,02,15.60
2009,04,19,15,03,15.70
2009,04,19,15,04,15.70
2009,04,19,15,05,15.70
2009,04,19,15,06,15.70
2009,04,19,15,07,15.70
2009,04,19,15,08,15.70
2009,04,19,15,09,15.90
2009,04,19,15,10,15.90
2009,04,19,15,11,15.90
2009,04,19,15,12,15.90
2009,04,19,15,13,16.00
2009,04,19,15,14,16.10
2009,04,19,15,15,16.20
2009,04,19,15,16,16.40
2009,04,19,15,17,16.50
2009,04,19,15,18,16.60
2009,04,19,15,19,16.40
2009,04,19,15,20,16.30
2009,04,19,15,21,16.30
2009,04,19,15,22,16.20
2009,04,19,15,23,16.10
2009,04,19,15,24,15.90
2009,04,19,15,25,15.80
2009,04,19,15,26,15.80
2009,04,19,15,27,15.70
2009,04,19,15,28,15.80
2009,04,19,15,29,15.90
2009,04,19,15,30,15.90
2009,04,19,15,31,16.00
2009,04,19,15,32,16.20
2009,04,19,15,33,16.40
2009,04,19,15,34,16.50
2009,04,19,15,35,16.50
2009,04,19,15,36,16.40
2009,04,19,15,37,16.40
2009,04,19,15,38,16.50
2009,04,19,15,39,16.50
2009,04,19,15,40,16.40
2009,04,19,15,41,16.30
2009,04,19,15,42,16.20
2009,04,19,15,43,16.20
2009,04,19,15,44,16.10
2009,04,19,15,45,16.00
2009,04,19,15,46,16.00
2009,04,19,15,47,16.10
2009,04,19,15,48,16.10
2009,04,19,15,49,16.10
2009,04,19,15,50,16.20
2009,04,19,15,51,16.20
2009,04,19,15,52,16.10
2009,04,19,15,53,16.00
2009,04,19,15,54,15.90
2009,04,19,15,55,15.70
2009,04,19,15,56,15.60
2009,04,19,15,57,15.40
2009,04,19,15,58,15.20
2009,04,19,15,59,15.00
2009,04,19,16,00,15.00
2009,04,19,16,01,15.00
2009,04,19,16,02,15.00
2009,04,19,16,03,15.00
2009,04,19,16,04,15.00
2009,04,19,16,05,15.00
2009,04,19,16,06,15.00
2009,04,19,16,07,14.90
2009,04,19,16,08,14.90
2009,04,19,16,09,14.80
2009,04,19,16,10,14.70
2009,04,19,16,11,14.70
2009,04,19,16,12,14.70
2009,04,19,16,13,14.70
2009,04,19,16,14,14.80
2009,04,19,16,15,14.80
2009,04,19,16,16,14.80
2009,04,19,16,17,14.80
2009,04,19,16,18,14.70
2009,04,19,16,19,14.60
2009,04,19,16,20,14.70
2009,04,19,16,21,14.70
2009,04,19,16,22,14.70
2009,04,19,16,23,14.70
2009,04,19,16,24,14.70
2009,04,19,16,25,14.70
2009,04,19,16,26,14.80
2009,04,19,16,27,14.80
2009,04,19,16,28,14.90
2009,04,19,16,29,14.90
2009,04,19,16,30,14.90
2009,04,19,16,31,14.90
2009,04,19,16,32,14.80
2009,04,19,16,33,14.80
2009,04,19,16,34,14.80
2009,04,19,16,35,14.80
2009,04,19,16,36,15.00
2009,04,19,16,37,15.00
2009,04,19,16,38,15.00
2009,04,19,16,39,15.00
2009,04,19,16,40,15.00
2009,04,19,16,41,15.00
2009,04,19,16,42,15.00
2009,04,19,16,43,15.00
2009,04,19,16,44,14.90
2009,04,19,16,45,14.90
2009,04,19,16,46,14.90
2009,04,19,16,47,14.90
2009,04,19,16,48,15.00
2009,04,19,16,49,15.00
2009,04,19,16,50,15.00
2009,04,19,16,51,15.00
2009,04,19,16,52,15.00
2009,04,19,16,53,15.00
2009,04,19,16,54,15.00
2009,04,19,16,55,15.00
2009,04,19,16,56,15.00
2009,04,19,16,57,15.00
2009,04,19,16,58,15.00
2009,04,19,16,59,15.00
2009,04,19,17,00,15.00
2009,04,19,17,01,15.10
2009,04,19,17,02,15.20
2009,04,19,17,03,15.20
2009,04,19,17,04,15.20
2009,04,19,17,05,15.30
2009,04,19,17,06,15.30
2009,04,19,17,07,15.30
2009,04,19,17,08,15.30
2009,04,19,17,09,15.40
2009,04,19,17,10,15.40
2009,04,19,17,11,15.40
2009,04,19,17,12,15.50
2009,04,19,17,13,15.50
2009,04,19,17,14,15.50
2009,04,19,17,15,15.50
2009,04,19,17,16,15.50
2009,04,19,17,17,15.60
2009,04,19,17,18,15.60
2009,04,19,17,19,15.70
2009,04,19,17,20,15.80
2009,04,19,17,21,15.80
2009,04,19,17,22,15.80
2009,04,19,17,23,15.70
2009,04,19,17,24,15.70
2009,04,19,17,25,15.70
2009,04,19,17,26,15.80
2009,04,19,17,27,15.80
2009,04,19,17,28,15.90
2009,04,19,17,29,15.80
2009,04,19,17,30,15.80
2009,04,19,17,31,15.80
2009,04,19,17,32,15.90
2009,04,19,17,33,15.90
2009,04,19,17,34,15.90
2009,04,19,17,35,15.90
2009,04,19,17,36,15.90
2009,04,19,17,37,15.90
2009,04,19,17,38,16.00
2009,04,19,17,39,15.90
2009,04,19,17,40,15.90
2009,04,19,17,41,15.90
2009,04,19,17,42,15.90